QPF
0.00 0.00 0.00 0.00 0.00 0.00 0.00 0.00 0.00 0.00 0.00 0.00 0.00 0.00 0.00 0.00 0.00 0.00 0.00 0.00 0.00 0.00 0.00 0.00 0.00 0.00 0.00 0.00 0.00 0.00 0.00 0.00 0.00 0.00 0.00 0.00 0.00 0.00 0.00 0.02 0.04 0.02 0.02 0.03
0.00 0.00 0.00 0.00 0.00 0.00 0.00 0.00 0.00 0.00 0.00 0.00 0.00 0.00 0.00 0.00 0.00 0.00 0.00 0.00 0.00 0.00 0.00 0.00 0.00 0.00 0.00 0.00 0.00 0.00 0.00 0.00 0.00 0.00 0.00 0.00 0.00 0.00 0.00 0.10 0.02 0.03 0.05 0.16
0.00 0.00 0.00 0.00 0.00 0.00 0.00 0.00 0.00 0.00 0.00 0.00 0.00 0.00 0.00 0.00 0.00 0.00 0.00 0.00 0.00 0.00 0.00 0.00 0.00 0.00 0.00 0.00 0.00 0.00 0.00 0.00 0.00 0.00 0.00 0.00 0.02 0.01 0.00 0.02 0.12 0.05 0.03 0.06
0.00 0.00 0.00 0.00 0.00 0.00 0.00 0.00 0.00 0.00 0.00 0.00 0.00 0.00 0.00 0.00 0.00 0.00 0.00 0.00 0.00 0.00 0.00 0.00 0.00 0.00 0.00 0.00 0.00 0.00 0.00 0.00 0.00 0.00 0.00 0.00 0.03 0.09 0.09 0.05 0.05 0.05 0.04 0.01
0.00 0.00 0.00 0.00 0.00 0.00 0.00 0.00 0.00 0.00 0.00 0.00 0.00 0.00 0.00 0.00 0.00 0.00 0.00 0.00 0.00 0.00 0.00 0.00 0.00 0.00 0.00 0.00 0.01 0.01 0.02 0.00 0.00 0.01 0.01 0.00 0.01 0.03 0.03 0.04 0.02 0.05 0.17 0.01
0.00 0.00 0.00 0.00 0.00 0.00 0.00 0.00 0.00 0.00 0.00 0.00 0.00 0.00 0.00 0.00 0.00 0.00 0.00 0.00 0.00 0.00 0.00 0.00 0.00 0.00 0.00 0.00 0.00 0.00 0.04 0.06 0.00 0.01 0.02 0.01 0.01 0.01 0.00 0.01 0.07 0.03 0.05 0.00
0.00 0.00 0.00 0.00 0.00 0.00 0.00 0.00 0.00 0.00 0.00 0.00 0.00 0.00 0.00 0.00 0.00 0.00 0.00 0.00 0.00 0.00 0.00 0.00 0.00 0.00 0.00 0.00 0.00 0.00 0.08 0.11 0.02 0.00 0.00 0.00 0.00 0.00 0.02 0.00 0.01 0.00 0.00 0.00
0.00 0.00 0.00 0.00 0.00 0.00 0.00 0.00 0.00 0.00 0.00 0.00 0.00 0.00 0.00 0.00 0.00 0.00 0.00 0.00 0.00 0.00 0.00 0.00 0.00 0.00 0.00 0.00 0.00 0.00 0.03 0.15 0.07 0.00 0.00 0.00 0.00 0.00 0.00 0.02 0.03 0.01 0.00 0.00
0.00 0.00 0.00 0.00 0.00 0.00 0.00 0.00 0.00 0.00 0.00 0.00 0.00 0.00 0.00 0.00 0.00 0.00 0.00 0.00 0.00 0.00 0.00 0.00 0.00 0.00 0.00 0.00 0.00 0.00 0.00 0.01 0.04 0.00 0.00 0.00 0.00 0.00 0.00 0.01 0.01 0.00 0.00 0.00
0.00 0.00 0.00 0.00 0.00 0.00 0.00 0.00 0.00 0.00 0.00 0.00 0.00 0.00 0.00 0.00 0.00 0.00 0.00 0.00 0.00 0.00 0.00 0.00 0.00 0.00 0.00 0.00 0.00 0.00 0.00 0.00 0.00 0.00 0.00 0.00 0.00 0.00 0.00 0.00 0.00 0.00 0.00 0.00
0.00 0.00 0.00 0.00 0.00 0.00 0.00 0.00 0.00 0.00 0.00 0.00 0.00 0.00 0.00 0.00 0.00 0.00 0.00 0.00 0.00 0.00 0.00 0.00 0.00 0.00 0.00 0.00 0.00 0.00 0.00 0.00 0.00 0.00 0.00 0.00 0.00 0.00 0.00 0.00 0.00 0.00 0.00 0.00
0.00 0.00 0.00 0.00 0.00 0.00 0.00 0.00 0.00 0.00 0.00 0.00 0.00 0.00 0.00 0.00 0.00 0.00 0.00 0.00 0.00 0.00 0.00 0.00 0.00 0.00 0.00 0.00 0.00 0.00 0.00 0.00 0.00 0.00 0.00 0.00 0.00 0.00 0.00 0.00 0.00 0.00 0.00 0.00
0.00 0.00 0.00 0.00 0.00 0.00 0.00 0.00 0.00 0.00 0.00 0.00 0.00 0.00 0.00 0.00 0.00 0.00 0.00 0.00 0.00 0.00 0.00 0.00 0.00 0.00 0.00 0.00 0.00 0.00 0.00 0.00 0.00 0.00 0.00 0.00 0.00 0.00 0.00 0.00 0.00 0.00 0.00 0.00
0.00 0.00 0.00 0.00 0.00 0.00 0.00 0.00 0.00 0.00 0.00 0.00 0.00 0.00 0.00 0.00 0.00 0.00 0.00 0.00 0.00 0.00 0.00 0.00 0.00 0.00 0.00 0.00 0.00 0.00 0.00 0.00 0.00 0.00 0.00 0.00 0.00 0.00 0.01 0.05 0.04 0.01 0.00 0.00
0.00 0.00 0.00 0.00 0.00 0.00 0.00 0.00 0.00 0.00 0.00 0.00 0.00 0.00 0.00 0.00 0.00 0.00 0.00 0.00 0.00 0.00 0.00 0.00 0.00 0.00 0.00 0.00 0.00 0.00 0.00 0.00 0.00 0.00 0.00 0.00 0.00 0.06 0.10 0.05 0.00 0.00 0.00 0.00
0.00 0.00 0.00 0.00 0.00 0.00 0.00 0.00 0.00 0.00 0.00 0.00 0.00 0.00 0.00 0.00 0.00 0.00 0.00 0.00 0.00 0.00 0.00 0.00 0.00 0.00 0.00 0.00 0.00 0.00 0.00 0.00 0.00 0.00 0.00 0.00 0.02 0.14 0.25 0.22 0.07 0.02 0.00 0.00
0.00 0.00 0.00 0.00 0.00 0.00 0.00 0.00 0.00 0.00 0.00 0.00 0.00 0.00 0.00 0.00 0.00 0.00 0.00 0.00 0.00 0.00 0.00 0.00 0.00 0.00 0.00 0.00 0.00 0.00 0.00 0.00 0.00 0.00 0.00 0.03 0.12 0.21 0.26 0.28 0.24 0.14 0.02 0.00
0.00 0.00 0.00 0.00 0.00 0.00 0.00 0.00 0.00 0.00 0.00 0.00 0.00 0.00 0.00 0.00 0.00 0.00 0.00 0.00 0.00 0.00 0.00 0.00 0.00 0.00 0.00 0.00 0.00 0.00 0.00 0.00 0.00 0.04 0.14 0.28 0.33 0.30 0.27 0.31 0.32 0.25 0.08 0.00
0.00 0.00 0.00 0.00 0.00 0.00 0.00 0.00 0.00 0.00 0.00 0.00 0.00 0.00 0.00 0.00 0.00 0.00 0.00 0.00 0.00 0.00 0.00 0.00 0.00 0.00 0.00 0.00 0.00 0.00 0.00 0.00 0.12 0.36 0.55 0.82 0.69 0.30 0.16 0.17 0.24 0.20 0.12 0.03
0.00 0.00 0.00 0.00 0.00 0.00 0.00 0.00 0.00 0.00 0.00 0.00 0.00 0.00 0.00 0.00 0.00 0.00 0.00 0.00 0.00 0.00 0.00 0.00 0.00 0.00 0.00 0.00 0.00 0.02 0.00 0.09 0.28 0.23 0.25 0.17 0.06 0.04 0.04 0.06 0.18 0.29 0.18 0.08
0.00 0.00 0.00 0.00 0.00 0.00 0.00 0.00 0.00 0.00 0.00 0.00 0.00 0.00 0.00 0.00 0.00 0.00 0.00 0.00 0.00 0.00 0.00 0.00 0.00 0.00 0.00 0.00 0.00 0.01 0.02 0.10 0.09 0.14 0.11 0.02 0.00 0.00 0.01 0.01 0.07 0.23 0.24 0.15
0.00 0.00 0.00 0.00 0.00 0.00 0.00 0.00 0.00 0.00 0.00 0.00 0.00 0.00 0.00 0.00 0.00 0.00 0.00 0.00 0.00 0.00 0.00 0.00 0.00 0.00 0.00 0.00 0.02 0.02 0.05 0.02 0.03 0.06 0.01 0.00 0.00 0.06 0.19 0.15 0.06 0.22 0.32 0.22
0.00 0.00 0.00 0.00 0.00 0.00 0.00 0.00 0.00 0.00 0.00 0.00 0.00 0.00 0.00 0.00 0.00 0.00 0.00 0.00 0.00 0.00 0.00 0.00 0.00 0.00 0.00 0.00 0.01 0.01 0.02 0.01 0.00 0.00 0.00 0.00 0.02 0.15 0.44 0.53 0.64 0.55 0.25 0.17
0.00 0.00 0.00 0.00 0.00 0.00 0.00 0.00 0.00 0.00 0.00 0.00 0.00 0.00 0.00 0.00 0.00 0.00 0.00 0.00 0.00 0.00 0.00 0.00 0.00 0.00 0.00 0.00 0.00 0.00 0.00 0.00 0.00 0.00 0.00 0.02 0.03 0.06 0.26 0.36 0.57 0.59 0.34 0.18
0.00 0.00 0.00 0.00 0.00 0.00 0.00 0.00 0.00 0.00 0.00 0.00 0.00 0.00 0.00 0.00 0.00 0.00 0.00 0.00 0.00 0.00 0.00 0.00 0.00 0.00 0.00 0.00 0.00 0.00 0.00 0.00 0.00 0.00 0.00 0.01 0.07 0.14 0.32 0.48 0.31 0.14 0.06 0.02
0.00 0.00 0.00 0.00 0.00 0.00 0.00 0.00 0.00 0.00 0.00 0.00 0.00 0.00 0.00 0.00 0.00 0.00 0.00 0.00 0.00 0.00 0.00 0.00 0.00 0.00 0.00 0.00 0.00 0.00 0.00 0.00 0.00 0.01 0.00 0.01 0.05 0.08 0.05 0.03 0.01 0.00 0.00 0.00
MSLP
1004.98 1005.85 1006.55 1007.07 1007.27 1007.28 1007.46 1007.65 1007.37 1006.97 1006.95 1007.46 1008.10 1008.55 1009.13 1009.33 1009.61 1009.98 1010.37 1010.42 1010.47 1010.50 1010.31 1010.77 1011.04 1011.48 1012.10 1012.60 1013.03 1013.35 1013.86 1014.25 1014.72 1015.32 1015.68 1015.76 1015.77 1015.81 1015.80 1015.77 1015.79 1015.80 1015.82 1015.90
1005.37 1005.74 1005.96 1006.53 1006.86 1007.44 1007.75 1007.71 1007.35 1006.91 1007.07 1007.55 1008.40 1008.48 1008.73 1009.27 1009.22 1009.31 1009.61 1009.95 1009.96 1010.24 1010.26 1010.45 1010.74 1011.11 1011.65 1012.10 1012.63 1013.14 1013.51 1014.02 1014.47 1014.83 1015.23 1015.44 1015.48 1015.52 1015.55 1015.55 1015.56 1015.52 1015.65 1015.77
1005.38 1005.34 1005.36 1006.03 1006.79 1007.15 1007.81 1007.80 1007.56 1007.59 1007.62 1008.11 1008.34 1008.59 1009.15 1009.17 1009.12 1009.13 1009.11 1009.05 1009.19 1009.54 1010.17 1010.42 1010.73 1010.89 1011.40 1011.93 1012.24 1012.60 1013.21 1013.68 1014.03 1014.52 1014.97 1015.29 1015.47 1015.56 1015.64 1015.71 1015.72 1015.74 1015.60 1015.58
1005.10 1004.84 1005.20 1005.61 1006.00 1006.79 1007.33 1006.78 1007.44 1008.03 1008.71 1009.37 1009.51 1010.05 1009.12 1009.17 1008.95 1008.67 1008.54 1008.62 1008.62 1008.96 1009.37 1009.79 1010.20 1010.63 1010.97 1011.46 1011.89 1012.26 1012.79 1013.33 1013.62 1014.07 1014.60 1014.81 1015.09 1015.33 1015.50 1015.49 1015.51 1015.68 1015.61 1015.46
1005.00 1004.86 1005.11 1005.36 1005.47 1005.91 1006.64 1006.86 1007.73 1008.41 1009.65 1010.19 1010.44 1010.62 1009.00 1008.73 1008.43 1007.97 1007.83 1008.11 1008.25 1008.41 1008.67 1009.04 1009.65 1009.84 1010.23 1010.96 1011.40 1011.88 1012.52 1013.30 1013.51 1013.71 1014.04 1014.63 1014.92 1015.00 1015.18 1015.44 1015.56 1015.68 1015.45 1015.46
1004.80 1004.47 1004.55 1004.44 1004.70 1005.36 1006.27 1007.09 1008.40 1009.51 1010.61 1011.58 1011.09 1010.98 1009.36 1008.40 1007.54 1007.05 1006.70 1006.81 1007.17 1007.45 1007.56 1008.02 1008.77 1009.51 1009.99 1010.47 1011.10 1011.56 1012.33 1012.80 1013.24 1013.52 1013.83 1014.19 1014.63 1014.77 1014.91 1015.15 1015.64 1015.79 1015.79 1015.75
1005.08 1004.43 1004.00 1004.03 1004.87 1005.50 1006.37 1007.91 1009.76 1011.16 1011.99 1011.98 1011.33 1010.94 1008.54 1007.20 1006.49 1006.17 1006.05 1006.11 1006.21 1006.36 1006.95 1007.57 1008.24 1009.03 1009.68 1010.14 1010.58 1011.20 1012.02 1012.51 1012.95 1013.27 1013.54 1013.88 1014.14 1014.48 1014.63 1014.83 1015.18 1015.49 1015.70 1015.80
1005.78 1004.85 1003.99 1003.68 1004.23 1005.29 1006.75 1008.05 1009.74 1011.47 1012.63 1012.08 1011.36 1010.02 1007.20 1005.87 1005.53 1005.39 1005.58 1005.68 1005.83 1006.15 1006.47 1006.88 1007.44 1008.27 1009.07 1009.57 1010.07 1010.69 1011.47 1011.95 1012.48 1013.01 1013.29 1013.51 1013.77 1014.09 1014.21 1014.42 1014.67 1014.92 1015.12 1015.32
1005.68 1004.90 1003.56 1003.43 1003.57 1004.36 1006.43 1007.76 1009.03 1011.08 1012.75 1012.42 1011.19 1009.12 1006.84 1005.42 1005.31 1005.36 1005.28 1005.49 1005.52 1005.76 1006.18 1006.97 1007.53 1007.94 1008.46 1009.20 1009.65 1010.22 1011.03 1011.52 1012.03 1012.54 1012.91 1013.23 1013.49 1013.67 1013.83 1014.07 1014.31 1014.62 1014.89 1015.20
1004.95 1004.87 1003.86 1003.47 1003.62 1004.44 1005.03 1006.55 1008.87 1010.90 1012.30 1012.51 1011.27 1009.78 1007.87 1005.78 1005.14 1005.05 1005.13 1005.14 1005.41 1005.71 1006.39 1006.80 1007.08 1007.46 1007.95 1008.44 1009.11 1009.88 1010.48 1010.92 1011.33 1011.97 1012.61 1012.97 1013.14 1013.24 1013.39 1013.77 1014.22 1014.60 1014.95 1015.26
1005.17 1005.29 1004.70 1004.22 1003.98 1004.29 1005.36 1006.67 1008.73 1010.61 1011.70 1012.12 1011.66 1009.51 1006.53 1005.54 1004.94 1004.78 1004.74 1004.76 1005.19 1005.58 1006.17 1006.44 1006.91 1007.23 1007.66 1008.16 1008.86 1009.47 1010.07 1010.45 1010.91 1011.52 1012.15 1012.69 1013.08 1013.15 1013.43 1013.71 1014.19 1014.51 1014.80 1015.10
1004.88 1005.67 1005.60 1004.50 1004.04 1004.05 1004.59 1006.09 1007.72 1010.10 1011.74 1011.98 1010.97 1008.28 1005.72 1005.25 1004.85 1004.68 1004.44 1004.81 1005.05 1005.63 1006.08 1006.36 1006.70 1007.07 1007.62 1008.00 1008.71 1009.14 1009.74 1010.24 1010.59 1011.18 1011.80 1012.47 1012.85 1013.12 1013.41 1013.70 1014.01 1014.32 1014.66 1015.24
1004.47 1005.44 1005.72 1004.77 1004.54 1004.23 1004.64 1005.71 1007.29 1008.43 1009.88 1011.13 1010.55 1007.83 1005.88 1005.36 1005.01 1004.79 1005.07 1004.95 1005.39 1005.73 1006.00 1006.41 1006.79 1007.13 1007.44 1007.89 1008.45 1008.94 1009.43 1009.79 1010.02 1010.82 1011.59 1012.20 1012.67 1013.28 1013.75 1014.12 1014.47 1014.65 1014.98 1015.36
1003.34 1005.20 1005.32 1004.99 1004.45 1004.22 1004.61 1005.42 1006.55 1007.41 1009.11 1010.17 1009.45 1007.88 1006.95 1006.61 1006.14 1005.53 1005.42 1005.43 1005.50 1005.97 1006.28 1006.31 1006.61 1007.10 1007.31 1007.44 1007.99 1008.79 1009.31 1009.48 1009.84 1010.45 1010.91 1011.07 1011.29 1011.89 1012.66 1013.53 1014.46 1014.77 1015.16 1015.41
1003.42 1004.94 1005.11 1004.65 1004.02 1004.06 1004.37 1005.08 1005.86 1006.82 1007.52 1007.99 1008.09 1008.18 1007.76 1007.38 1006.84 1006.22 1005.81 1005.70 1005.77 1006.12 1006.46 1006.72 1007.20 1007.58 1007.98 1008.61 1008.78 1008.89 1008.91 1009.14 1009.54 1010.25 1010.92 1011.18 1011.67 1012.23 1012.54 1012.62 1013.28 1014.38 1015.09 1015.27
1004.05 1005.23 1005.48 1005.36 1004.63 1004.50 1004.48 1005.08 1005.59 1006.27 1006.93 1007.44 1007.67 1008.04 1007.73 1007.23 1006.83 1006.51 1006.24 1006.17 1006.38 1006.37 1006.42 1006.92 1007.41 1007.38 1007.62 1007.79 1007.98 1008.40 1008.80 1009.22 1009.53 1010.26 1010.89 1011.39 1012.01 1012.57 1013.28 1013.85 1013.51 1013.98 1014.87 1015.36
1004.65 1005.45 1006.30 1006.37 1005.51 1005.02 1005.29 1005.25 1005.52 1006.17 1006.58 1006.93 1007.74 1008.00 1007.74 1007.66 1007.46 1007.08 1006.93 1006.84 1006.74 1006.64 1006.35 1006.33 1006.43 1006.43 1006.50 1006.75 1007.09 1007.71 1008.39 1008.98 1009.79 1010.68 1011.23 1011.63 1012.18 1012.88 1013.71 1014.00 1014.46 1013.78 1015.47 1015.57
1004.88 1005.84 1006.57 1007.45 1006.53 1006.49 1005.87 1005.35 1005.66 1005.89 1006.77 1006.79 1007.17 1007.53 1007.70 1007.87 1007.79 1007.58 1007.50 1007.58 1007.53 1007.48 1007.36 1007.21 1006.80 1006.45 1006.41 1006.26 1006.57 1007.49 1008.25 1008.88 1009.48 1010.20 1010.80 1011.60 1011.69 1012.33 1012.99 1013.24 1013.61 1013.62 1014.79 1015.09
1004.41 1005.80 1007.74 1008.17 1008.10 1007.49 1006.48 1005.79 1005.57 1005.75 1007.19 1007.11 1007.33 1007.62 1007.69 1007.68 1007.55 1007.90 1008.00 1008.01 1008.11 1008.09 1007.93 1007.60 1007.25 1006.82 1006.74 1007.38 1008.04 1008.48 1009.11 1009.46 1009.83 1010.08 1010.24 1009.88 1009.00 1010.09 1011.36 1012.85 1012.26 1012.70 1013.39 1014.20
1004.97 1005.28 1006.90 1008.85 1008.73 1007.76 1005.88 1005.08 1005.07 1005.59 1007.16 1006.99 1007.21 1007.49 1007.49 1007.79 1008.33 1008.66 1008.54 1008.42 1008.41 1008.56 1008.61 1008.48 1008.18 1008.24 1008.41 1009.02 1009.22 1009.59 1010.09 1010.51 1010.77 1010.77 1010.93 1010.72 1010.52 1010.53 1010.74 1011.46 1011.45 1011.92 1013.04 1013.78
1005.95 1006.95 1007.83 1008.49 1008.00 1006.94 1005.48 1005.09 1005.16 1006.02 1006.91 1006.88 1007.18 1007.25 1007.53 1008.13 1008.51 1008.69 1008.97 1009.11 1009.17 1009.31 1009.33 1009.35 1009.29 1009.41 1009.60 1009.76 1010.09 1010.54 1010.73 1010.82 1010.96 1010.79 1010.53 1010.38 1009.94 1009.79 1009.76 1009.82 1010.31 1010.94 1012.13 1012.75
1005.55 1006.75 1008.07 1008.41 1007.65 1006.39 1005.00 1005.37 1005.49 1005.74 1006.42 1006.64 1007.02 1007.36 1007.79 1008.13 1008.74 1009.19 1009.36 1009.38 1009.45 1009.90 1010.04 1010.03 1010.15 1010.31 1010.37 1010.31 1010.37 1010.79 1010.97 1011.11 1010.84 1010.77 1010.61 1010.23 1009.89 1009.21 1008.72 1008.36 1008.95 1009.90 1011.59 1012.23
1005.09 1005.10 1006.02 1006.63 1006.14 1005.46 1004.98 1004.85 1005.01 1005.38 1005.95 1006.79 1007.10 1007.61 1008.00 1008.64 1009.11 1009.49 1009.69 1009.81 1010.09 1010.36 1010.43 1010.53 1010.72 1010.84 1010.96 1010.84 1010.84 1011.01 1011.12 1010.95 1010.89 1010.86 1010.62 1010.19 1010.12 1009.54 1008.91 1007.94 1008.54 1009.00 1010.50 1011.62
1004.66 1004.69 1005.49 1006.14 1006.00 1005.65 1005.22 1005.31 1005.40 1005.81 1006.36 1006.94 1007.21 1007.72 1008.27 1008.83 1009.51 1009.84 1010.20 1010.59 1010.88 1011.10 1011.14 1011.16 1011.25 1011.52 1011.67 1011.52 1011.36 1011.35 1011.27 1011.09 1010.92 1010.96 1011.03 1011.00 1011.00 1010.06 1010.03 1010.42 1010.57 1010.91 1011.52 1012.23
1004.30 1004.68 1005.66 1006.37 1006.34 1005.96 1006.09 1005.94 1006.16 1006.67 1007.02 1007.44 1007.86 1008.13 1008.47 1008.96 1009.70 1010.15 1010.80 1011.35 1011.75 1011.90 1011.98 1012.01 1012.07 1012.15 1012.15 1012.00 1011.84 1011.69 1011.49 1011.25 1011.14 1011.16 1011.27 1011.05 1011.17 1011.16 1011.33 1011.35 1011.75 1012.03 1011.97 1012.09
1003.94 1004.28 1004.74 1005.23 1004.79 1004.91 1006.04 1006.36 1006.53 1006.93 1007.57 1007.84 1008.15 1008.80 1009.06 1009.39 1009.85 1010.47 1011.23 1011.83 1012.21 1012.42 1012.47 1012.54 1012.68 1012.64 1012.46 1012.23 1012.07 1011.79 1011.51 1011.25 1011.14 1011.13 1011.35 1011.37 1011.52 1011.74 1011.82 1012.23 1012.82 1013.18 1012.99 1013.27
Thickness
5830 5811 5796 5806 5809 5811 5806 5798 5800 5809 5817 5806 5793 5790 5789 5796 5796 5791 5788 5788 5788 5789 5797 5795 5795 5793 5786 5780 5776 5775 5772 5772 5769 5765 5762 5763 5763 5764 5765 5766 5766 5768 5769 5768
5814 5802 5821 5819 5815 5806 5800 5796 5798 5809 5819 5810 5790 5789 5796 5796 5797 5799 5798 5794 5796 5795 5796 5796 5795 5795 5789 5784 5779 5776 5774 5771 5769 5768 5766 5766 5766 5767 5767 5767 5767 5768 5767 5767
5803 5821 5833 5825 5809 5803 5795 5790 5796 5799 5808 5804 5794 5783 5785 5798 5804 5804 5806 5810 5810 5804 5795 5795 5794 5796 5794 5787 5783 5780 5776 5772 5772 5770 5767 5767 5767 5767 5766 5766 5767 5768 5767 5768
5819 5832 5825 5818 5812 5805 5789 5814 5811 5803 5789 5763 5786 5747 5782 5792 5796 5803 5808 5811 5813 5810 5807 5801 5798 5796 5796 5793 5789 5785 5780 5775 5775 5772 5768 5768 5765 5764 5766 5767 5768 5768 5767 5768
5809 5820 5818 5812 5817 5823 5806 5818 5808 5803 5778 5775 5771 5756 5778 5797 5800 5806 5813 5814 5815 5816 5813 5809 5805 5805 5804 5800 5795 5790 5783 5775 5776 5775 5772 5767 5765 5766 5767 5766 5765 5765 5767 5767
5818 5839 5834 5828 5837 5832 5824 5812 5793 5779 5767 5743 5766 5761 5774 5792 5807 5818 5827 5826 5825 5823 5825 5822 5817 5811 5807 5803 5798 5793 5784 5779 5778 5775 5773 5770 5766 5767 5766 5765 5761 5761 5761 5762
5809 5822 5839 5844 5823 5828 5815 5790 5746 5746 5737 5742 5764 5759 5785 5815 5824 5831 5832 5831 5831 5835 5831 5826 5820 5814 5808 5804 5801 5797 5787 5782 5779 5776 5775 5773 5771 5769 5767 5766 5763 5762 5760 5759
5778 5781 5823 5843 5829 5811 5803 5792 5753 5747 5735 5749 5767 5771 5802 5833 5841 5841 5841 5841 5841 5837 5837 5834 5829 5822 5815 5810 5806 5802 5793 5787 5782 5778 5777 5777 5775 5773 5773 5772 5770 5768 5767 5766
5776 5792 5838 5843 5844 5836 5807 5789 5795 5748 5740 5746 5756 5788 5819 5837 5839 5838 5840 5841 5843 5842 5840 5835 5830 5826 5821 5813 5809 5805 5797 5793 5787 5783 5781 5779 5777 5776 5775 5774 5773 5771 5769 5766
5810 5792 5830 5841 5845 5838 5825 5820 5782 5754 5749 5751 5753 5764 5780 5825 5839 5842 5841 5843 5845 5844 5838 5836 5834 5830 5826 5819 5814 5810 5804 5799 5793 5787 5783 5780 5778 5779 5780 5777 5772 5769 5767 5764
5808 5802 5807 5827 5822 5812 5813 5799 5777 5767 5755 5737 5737 5762 5813 5828 5838 5841 5844 5849 5845 5843 5839 5839 5838 5835 5830 5823 5817 5811 5807 5803 5797 5792 5787 5782 5779 5780 5778 5775 5771 5769 5766 5763
5815 5789 5784 5808 5833 5837 5828 5809 5794 5770 5766 5739 5744 5769 5838 5836 5841 5843 5847 5847 5849 5845 5842 5842 5840 5835 5828 5823 5817 5814 5808 5804 5801 5794 5789 5783 5780 5778 5775 5774 5772 5769 5764 5759
5814 5787 5769 5793 5810 5830 5824 5812 5790 5779 5767 5746 5750 5771 5836 5838 5839 5842 5841 5845 5843 5842 5841 5839 5836 5832 5829 5824 5819 5815 5811 5807 5804 5796 5789 5784 5779 5772 5767 5764 5762 5761 5757 5752
5828 5788 5791 5774 5799 5815 5818 5817 5802 5798 5770 5757 5763 5793 5814 5818 5824 5834 5837 5841 5842 5838 5836 5836 5833 5829 5828 5827 5820 5813 5809 5809 5805 5799 5795 5792 5790 5784 5776 5765 5756 5754 5750 5747
5824 5799 5801 5808 5821 5819 5822 5820 5804 5804 5797 5796 5799 5789 5802 5809 5816 5827 5835 5838 5837 5834 5830 5829 5825 5821 5818 5811 5809 5808 5809 5808 5805 5797 5790 5787 5782 5777 5773 5772 5763 5751 5745 5743
5812 5790 5805 5805 5814 5816 5814 5807 5807 5810 5799 5802 5792 5792 5813 5818 5827 5828 5828 5831 5827 5829 5832 5827 5822 5821 5818 5815 5813 5809 5805 5801 5798 5790 5784 5778 5770 5765 5757 5751 5753 5749 5738 5733
5803 5789 5784 5783 5799 5805 5786 5804 5802 5802 5805 5803 5780 5798 5811 5809 5815 5817 5818 5823 5825 5827 5831 5831 5827 5825 5823 5819 5816 5809 5802 5795 5786 5775 5770 5764 5756 5748 5738 5736 5730 5736 5720 5721
5795 5784 5774 5768 5785 5761 5792 5811 5809 5801 5800 5805 5803 5806 5808 5806 5810 5814 5816 5813 5813 5814 5815 5815 5819 5821 5821 5821 5817 5804 5794 5786 5778 5768 5759 5748 5737 5729 5727 5727 5719 5723 5715 5714
5804 5784 5757 5757 5742 5768 5789 5801 5801 5798 5789 5806 5799 5802 5805 5808 5809 5805 5808 5808 5804 5803 5805 5807 5810 5814 5812 5802 5794 5787 5778 5771 5765 5758 5749 5747 5738 5736 5734 5715 5712 5717 5708 5710
5792 5790 5778 5748 5750 5741 5783 5811 5820 5812 5766 5807 5803 5799 5800 5802 5779 5784 5799 5801 5800 5798 5795 5795 5795 5792 5786 5778 5774 5766 5756 5748 5743 5739 5733 5725 5724 5724 5722 5713 5710 5709 5703 5699
5768 5764 5761 5748 5755 5766 5796 5813 5817 5774 5775 5803 5802 5801 5798 5788 5789 5793 5794 5792 5790 5786 5784 5782 5779 5774 5769 5764 5756 5746 5739 5733 5728 5726 5724 5723 5722 5717 5711 5708 5703 5700 5692 5691
5774 5760 5752 5746 5750 5765 5810 5807 5790 5797 5802 5804 5803 5800 5796 5792 5788 5784 5784 5782 5779 5772 5772 5771 5765 5758 5754 5750 5744 5734 5727 5722 5720 5716 5714 5712 5709 5708 5705 5702 5694 5680 5670 5677
5776 5780 5770 5773 5771 5795 5807 5813 5810 5810 5804 5801 5798 5794 5789 5782 5778 5776 5772 5770 5765 5762 5760 5758 5752 5745 5739 5735 5730 5724 5718 5715 5712 5707 5705 5704 5698 5697 5695 5693 5681 5674 5666 5670
5785 5787 5773 5775 5788 5791 5798 5804 5807 5806 5799 5796 5795 5788 5783 5775 5769 5765 5762 5757 5752 5749 5746 5743 5738 5730 5722 5717 5715 5712 5709 5705 5703 5698 5691 5686 5682 5690 5683 5671 5663 5662 5660 5660
5779 5783 5766 5763 5777 5786 5790 5794 5795 5793 5793 5788 5785 5781 5775 5769 5762 5757 5749 5743 5737 5733 5730 5728 5721 5715 5709 5706 5704 5702 5699 5698 5694 5689 5685 5682 5678 5676 5672 5667 5661 5658 5662 5665
5776 5772 5768 5763 5789 5786 5782 5786 5790 5786 5781 5781 5776 5768 5766 5762 5755 5749 5741 5734 5727 5723 5719 5715 5710 5706 5703 5702 5697 5695 5694 5692 5689 5685 5681 5677 5675 5671 5669 5663 5656 5649 5652 5653